sat.trackr.live / text

‹ back to catalog

STARLINK-4659

NORAD 54841 · 2022-177X

PAYLOAD ACTIVE UNKNOWN

§ Identity

Operator
Country
US
Launch date
2022-12-28
Launch site
AFETR
Launch vehicle
Mass (kg)
RCS (m²)

Purposes: comms

External: N2YO · Heavens-Above · Gunter

§ Orbital elements

Epoch: 2026-05-24T22:50:24.844416Z

Period
94.27 min
Inclination
43.0066°
Eccentricity
0.0001307
Mean motion
15.27574527 rev/d
Perigee alt
482.2 km
Apogee alt
484.0 km
Semi-major
6,861.2 km
B*
6.2450e-6
RAAN
62.2204°
Arg perigee
271.0290°
Mean anomaly
89.0412°
Rev number
18,862

§ Raw data

STARLINK-46591 54841U 22177X   26144.95167644 -.00000090  00000+0  62450-5 0  99912 54841  43.0066  62.2204 0001307 271.0290  89.0412 15.27574527188625

JSON: /api/v1/satellites/54841 · /tle

For live sub-satellite position, see the globe view (requires WebGL).

§ Visibility from observer

Set your observer location to see the next 7 days of passes ≥ 10°. The values pass through the URL so the page stays shareable.

No JS? Fill the form by hand. The geolocation button needs JavaScript.